When you browse on this site, cookies collect data to enhance your experience and personalize the content and advertising you see.
Visit our Privacy Policy to learn more. By continuing to use the site, you agree to this use of cookies and data.
  • In Latvia
  • List of Countries
  • For 7 days
  • Water Temperature
  • Weather Map
  • Weather Widgets
  • user-avatar
    Login

    Hourly Weather Kuzkino

    Today, 5 June, Friday

    Time Temperature Precipitation Wind Pressure Humidity
    00:00 +15°C° 0 mm 1 mps 743 mmHg 93%
    01:00 +15°C° 0 mm 1 mps 744 mmHg 92%
    02:00 +15°C° 0 mm 1 mps 744 mmHg 92%
    03:00 +15°C° 0 mm 1 mps 744 mmHg 92%
    04:00 +15°C° 0 mm 1 mps 744 mmHg 90%
    05:00 +16°C° 0 mm 1 mps 744 mmHg 88%
    06:00 +16°C° 0 mm 0 mps 745 mmHg 86%
    07:00 +18°C° 0 mm 0 mps 745 mmHg 82%
    08:00 +21°C° 0 mm 1 mps 745 mmHg 77%
    09:00 +22°C° 0 mm 1 mps 745 mmHg 73%
    10:00 +23°C° 0.2 mm 1 mps 745 mmHg 70%
    11:00 +23°C° 0.2 mm 1 mps 745 mmHg 67%
    12:00 +24°C° 0.2 mm 2 mps 745 mmHg 64%
    13:00 +23°C° 0.4 mm 2 mps 745 mmHg 65%
    14:00 +23°C° 0.4 mm 2 mps 745 mmHg 66%
    15:00 +22°C° 0.4 mm 3 mps 745 mmHg 67%
    16:00 +21°C° 0.6 mm 3 mps 745 mmHg 73%
    17:00 +20°C° 0.6 mm 3 mps 745 mmHg 79%
    18:00 +19°C° 0.6 mm 3 mps 744 mmHg 85%
    19:00 +18°C° 0 mm 2 mps 745 mmHg 86%
    20:00 +18°C° 0 mm 1 mps 745 mmHg 87%
    21:00 +15°C° 0 mm 0 mps 745 mmHg 88%
    22:00 +15°C° 0 mm 0 mps 745 mmHg 87%
    23:00 +15°C° 0 mm 0 mps 745 mmHg 87%

    Tomorrow, 6 June, Saturday

    Time Temperature Precipitation Wind Pressure Humidity
    00:00 +15°C° 0 mm 1 mps 745 mmHg 87%
    01:00 +15°C° 0 mm 1 mps 745 mmHg 89%
    02:00 +14°C° 0 mm 2 mps 745 mmHg 90%
    03:00 +14°C° 0 mm 2 mps 745 mmHg 92%
    04:00 +15°C° 0 mm 2 mps 746 mmHg 91%
    05:00 +14°C° 0 mm 3 mps 746 mmHg 90%
    06:00 +16°C° 0 mm 3 mps 746 mmHg 89%
    07:00 +17°C° 0 mm 3 mps 746 mmHg 83%
    08:00 +18°C° 0 mm 3 mps 746 mmHg 78%
    09:00 +20°C° 0 mm 4 mps 746 mmHg 73%
    10:00 +20°C° 0.2 mm 4 mps 746 mmHg 72%
    11:00 +20°C° 0.2 mm 4 mps 746 mmHg 72%
    12:00 +20°C° 0.2 mm 4 mps 746 mmHg 72%
    13:00 +21°C° 0.2 mm 4 mps 746 mmHg 71%
    14:00 +21°C° 0.2 mm 4 mps 746 mmHg 71%
    15:00 +21°C° 0.2 mm 5 mps 747 mmHg 71%
    16:00 +21°C° 0.6 mm 4 mps 746 mmHg 75%
    17:00 +21°C° 0.6 mm 3 mps 746 mmHg 79%
    18:00 +20°C° 0.6 mm 3 mps 746 mmHg 83%
    19:00 +19°C° 0.3 mm 3 mps 747 mmHg 86%
    20:00 +18°C° 0.3 mm 2 mps 747 mmHg 89%
    21:00 +16°C° 0.3 mm 2 mps 747 mmHg 91%
    22:00 +16°C° 0.1 mm 2 mps 747 mmHg 92%
    23:00 +16°C° 0.1 mm 2 mps 747 mmHg 93%

    Day after tomorrow, 7 June, Sunday

    Time Temperature Precipitation Wind Pressure Humidity
    00:00 +15°C° 0.1 mm 2 mps 747 mmHg 94%
    01:00 +15°C° 0 mm 2 mps 748 mmHg 94%
    02:00 +15°C° 0 mm 2 mps 748 mmHg 95%
    03:00 +15°C° 0 mm 1 mps 748 mmHg 95%
    04:00 +16°C° 0 mm 1 mps 748 mmHg 93%
    05:00 +16°C° 0 mm 1 mps 748 mmHg 91%
    06:00 +16°C° 0 mm 0 mps 749 mmHg 90%
    07:00 +20°C° 0 mm 1 mps 749 mmHg 86%
    08:00 +21°C° 0 mm 1 mps 749 mmHg 82%
    09:00 +21°C° 0 mm 2 mps 749 mmHg 79%
    10:00 +23°C° 0 mm 2 mps 749 mmHg 75%
    11:00 +24°C° 0 mm 2 mps 749 mmHg 72%
    12:00 +24°C° 0 mm 2 mps 749 mmHg 69%
    13:00 +25°C° 0.1 mm 2 mps 749 mmHg 68%
    14:00 +25°C° 0.1 mm 2 mps 749 mmHg 67%
    15:00 +26°C° 0.1 mm 1 mps 749 mmHg 66%
    16:00 +25°C° 1.5 mm 1 mps 749 mmHg 71%
    17:00 +24°C° 1.5 mm 1 mps 749 mmHg 77%
    18:00 +23°C° 1.5 mm 1 mps 748 mmHg 83%
    19:00 +22°C° 0.1 mm 1 mps 749 mmHg 84%
    20:00 +19°C° 0.1 mm 0 mps 749 mmHg 84%
    21:00 +18°C° 0.1 mm 0 mps 749 mmHg 85%
    22:00 +18°C° 0 mm 0 mps 749 mmHg 86%
    23:00 +17°C° 0 mm 0 mps 749 mmHg 87%

    8 June, Monday

    Time Temperature Precipitation Wind Pressure Humidity
    00:00 +17°C° 0 mm 0 mps 749 mmHg 88%
    01:00 +18°C° 0 mm 1 mps 749 mmHg 89%
    02:00 +18°C° 0 mm 1 mps 749 mmHg 90%
    03:00 +18°C° 0 mm 1 mps 749 mmHg 92%
    04:00 +18°C° 0 mm 1 mps 749 mmHg 91%
    05:00 +18°C° 0 mm 2 mps 749 mmHg 90%
    06:00 +19°C° 0 mm 2 mps 749 mmHg 89%
    07:00 +20°C° 0 mm 2 mps 749 mmHg 85%
    08:00 +21°C° 0 mm 3 mps 749 mmHg 82%
    09:00 +22°C° 0 mm 3 mps 750 mmHg 78%
    10:00 +24°C° 0 mm 3 mps 750 mmHg 75%
    11:00 +23°C° 0 mm 4 mps 750 mmHg 72%
    12:00 +25°C° 0 mm 4 mps 749 mmHg 69%
    13:00 +25°C° 0 mm 4 mps 749 mmHg 68%
    14:00 +25°C° 0 mm 4 mps 749 mmHg 67%
    15:00 +25°C° 0 mm 4 mps 749 mmHg 66%
    16:00 +23°C° 0 mm 4 mps 749 mmHg 70%
    17:00 +24°C° 0 mm 3 mps 749 mmHg 74%
    18:00 +22°C° 0 mm 3 mps 749 mmHg 78%
    19:00 +21°C° 0 mm 3 mps 749 mmHg 81%
    20:00 +19°C° 0 mm 3 mps 749 mmHg 85%
    21:00 +18°C° 0 mm 3 mps 749 mmHg 88%
    22:00 +17°C° 0 mm 3 mps 749 mmHg 90%
    23:00 +17°C° 0 mm 2 mps 750 mmHg 91%

    9 June, Tuesday

    Time Temperature Precipitation Wind Pressure Humidity
    00:00 +16°C° 0 mm 2 mps 750 mmHg 92%
    01:00 +16°C° 0 mm 2 mps 750 mmHg 92%
    02:00 +15°C° 0 mm 2 mps 750 mmHg 91%
    03:00 +15°C° 0 mm 2 mps 750 mmHg 90%
    04:00 +16°C° 0 mm 2 mps 750 mmHg 88%
    05:00 +17°C° 0 mm 2 mps 751 mmHg 85%
    06:00 +18°C° 0 mm 2 mps 751 mmHg 82%
    07:00 +20°C° 0 mm 2 mps 751 mmHg 78%
    08:00 +21°C° 0 mm 3 mps 751 mmHg 75%
    09:00 +22°C° 0 mm 3 mps 751 mmHg 71%
    10:00 +24°C° 0 mm 3 mps 752 mmHg 67%
    11:00 +25°C° 0 mm 3 mps 752 mmHg 62%
    12:00 +27°C° 0 mm 3 mps 752 mmHg 58%
    13:00 +27°C° 0 mm 3 mps 752 mmHg 57%
    14:00 +27°C° 0 mm 3 mps 752 mmHg 57%
    15:00 +28°C° 0 mm 3 mps 752 mmHg 56%
    16:00 +27°C° 0 mm 3 mps 752 mmHg 61%
    17:00 +26°C° 0 mm 2 mps 752 mmHg 66%
    18:00 +26°C° 0 mm 2 mps 752 mmHg 71%
    19:00 +24°C° 0 mm 2 mps 752 mmHg 71%
    20:00 +21°C° 0 mm 2 mps 752 mmHg 71%
    21:00 +20°C° 0 mm 2 mps 752 mmHg 71%
    22:00 +19°C° 0 mm 2 mps 752 mmHg 71%
    23:00 +19°C° 0 mm 1 mps 752 mmHg 72%

    10 June, Wednesday

    Time Temperature Precipitation Wind Pressure Humidity
    00:00 +19°C° 0 mm 1 mps 752 mmHg 72%
    01:00 +18°C° 0 mm 1 mps 752 mmHg 71%
    02:00 +18°C° 0 mm 1 mps 752 mmHg 70%
    03:00 +18°C° 0 mm 1 mps 752 mmHg 68%
    04:00 +19°C° 0 mm 1 mps 753 mmHg 70%
    05:00 +20°C° 0 mm 1 mps 753 mmHg 72%
    06:00 +20°C° 0 mm 2 mps 753 mmHg 74%
    07:00 +21°C° 0 mm 2 mps 753 mmHg 70%
    08:00 +23°C° 0 mm 2 mps 753 mmHg 67%
    09:00 +24°C° 0 mm 2 mps 753 mmHg 64%
    10:00 +25°C° 0 mm 2 mps 753 mmHg 62%
    11:00 +26°C° 0 mm 3 mps 753 mmHg 60%
    12:00 +27°C° 0 mm 3 mps 753 mmHg 58%
    13:00 +28°C° 0 mm 3 mps 753 mmHg 57%
    14:00 +28°C° 0 mm 3 mps 753 mmHg 56%
    15:00 +28°C° 0 mm 3 mps 753 mmHg 54%
    16:00 +28°C° 0 mm 2 mps 752 mmHg 58%
    17:00 +27°C° 0 mm 2 mps 752 mmHg 62%
    18:00 +27°C° 0 mm 2 mps 752 mmHg 66%
    19:00 +25°C° 0 mm 1 mps 752 mmHg 66%
    20:00 +23°C° 0 mm 1 mps 752 mmHg 66%
    21:00 +21°C° 0 mm 1 mps 752 mmHg 66%
    22:00 +21°C° 0 mm 1 mps 752 mmHg 67%
    23:00 +20°C° 0 mm 1 mps 752 mmHg 67%
    Show more